Location: Les Salelles
(44.4192°N, 4.1044°E)
Time: 12:41:01
(UTC+00:00)

USA 234 - Pass Details

Date: 20 January 2021
Orbit: 1100 x 1107 km, 123.0° (Epoch: 01 March)

Event Time Altitude Azimuth Distance (km) Brightness Sun altitude
Exits shadow 18:40:16 32° 50° (NE) 1,784 3.9 -21.8°
Maximum altitude 18:42:01 38° 19° (NNE) 1,626 3.9 -22.1°
Drops below altitude 10° 18:47:56 10° 314° (NW) 2,968 6.0 -23.1°
Sets 18:50:35 0° 307° (NW) 3,928 6.9 -23.6°
